TimeEST,TemperatureF,Dew PointF,Humidity,Sea Level PressureIn,VisibilityMPH,Wind Direction,Wind SpeedMPH,Gust SpeedMPH,PrecipitationIn,Events,Conditions,WindDirDegrees,DateUTC
12:56 AM,54.9,37.9,53,30.29,10.0,South,12.7,17.3,N/A,,Clear,170,2012-11-12 05:56:00
1:56 AM,54.9,37.9,53,30.28,10.0,SSE,15.0,-,N/A,,Clear,160,2012-11-12 06:56:00
2:56 AM,54.0,38.8,57,30.27,10.0,SSE,12.7,23.0,N/A,,Clear,150,2012-11-12 07:56:00
3:56 AM,54.9,38.8,55,30.25,10.0,SSE,18.4,24.2,N/A,,Clear,160,2012-11-12 08:56:00
4:56 AM,54.9,41.0,60,30.27,10.0,SSE,15.0,-,N/A,,Clear,150,2012-11-12 09:56:00
5:56 AM,54.9,43.0,64,30.27,10.0,South,11.5,-,N/A,,Clear,170,2012-11-12 10:56:00
6:24 AM,55.4,44.6,67,30.27,10.0,South,9.2,-,N/A,,Clear,180,2012-11-12 11:24:00
6:56 AM,55.9,43.9,64,30.28,10.0,South,12.7,-,N/A,,Clear,170,2012-11-12 11:56:00
7:56 AM,56.8,45.9,67,30.29,10.0,South,12.7,-,N/A,,Clear,170,2012-11-12 12:56:00
8:56 AM,59.0,47.8,66,30.29,10.0,South,9.2,18.4,N/A,,Clear,180,2012-11-12 13:56:00
9:56 AM,59.9,48.9,67,30.27,10.0,South,19.6,25.3,N/A,,Clear,180,2012-11-12 14:56:00
10:56 AM,61.9,50.0,65,30.27,10.0,South,9.2,-,N/A,,Clear,190,2012-11-12 15:56:00
11:56 AM,61.9,50.0,65,30.23,10.0,South,17.3,-,N/A,,Clear,190,2012-11-12 16:56:00
12:56 PM,61.9,50.0,65,30.20,10.0,South,12.7,-,N/A,,Scattered Clouds,180,2012-11-12 17:56:00
1:56 PM,61.9,48.9,62,30.16,10.0,South,18.4,25.3,N/A,,Partly Cloudy,180,2012-11-12 18:56:00
2:56 PM,63.9,48.9,58,30.12,10.0,South,21.9,27.6,N/A,,Clear,170,2012-11-12 19:56:00
3:56 PM,63.0,48.9,60,30.09,10.0,South,26.5,33.4,N/A,,Clear,170,2012-11-12 20:56:00
4:56 PM,61.9,47.8,60,30.07,10.0,South,21.9,26.5,N/A,,Scattered Clouds,170,2012-11-12 21:56:00
5:56 PM,61.9,48.9,62,30.08,10.0,South,15.0,-,N/A,,Overcast,180,2012-11-12 22:56:00
6:56 PM,59.9,50.0,70,30.06,10.0,SSE,18.4,25.3,N/A,,Overcast,150,2012-11-12 23:56:00
7:56 PM,59.9,50.0,70,30.04,10.0,SSE,19.6,26.5,N/A,,Overcast,150,2012-11-13 00:56:00
8:56 PM,59.9,50.9,72,30.02,10.0,South,13.8,21.9,N/A,,Overcast,170,2012-11-13 01:56:00
9:56 PM,52.9,45.9,77,30.09,7.0,NW,28.8,35.7,0.00,Rain,Rain,320,2012-11-13 02:56:00
10:00 PM,50.0,44.6,82,30.10,4.0,NW,25.3,38.0,0.07,Rain,Heavy Rain,320,2012-11-13 03:00:00
10:08 PM,46.4,44.6,93,30.12,3.0,NW,18.4,31.1,0.13,Rain,Heavy Rain,320,2012-11-13 03:08:00
10:56 PM,43.9,43.0,97,30.18,6.0,NW,20.7,-,0.25,Rain,Rain,310,2012-11-13 03:56:00
11:08 PM,42.8,41.0,93,30.18,5.0,NW,16.1,26.5,0.02,Rain,Rain,310,2012-11-13 04:08:00
11:56 PM,41.0,38.8,92,30.22,10.0,NNW,8.1,-,0.08,Rain,Light Rain,330,2012-11-13 04:56:00